| time (UTC) | temp F | wind direction | speed MPH | gust MPH | rain 1hr in | rain 24hr in | rain mn in | humidity % | barometer mb |
| 20260506073431 | 59 | 150 | 1.0 | 1.0 | 0.00 | 0.00 | 0.00 | 97 | 1015.4 |
| 20260506072929 | 59 | 258 | 0.0 | 0.0 | 0.00 | 0.00 | 0.00 | 97 | 1015.2 |
| 20260506072426 | 59 | 275 | 0.0 | 0.0 | 0.00 | 0.00 | 0.00 | 96 | 1015.4 |
| 20260506071924 | 59 | 224 | 0.0 | 1.0 | 0.00 | 0.00 | 0.00 | 96 | 1015.1 |
| 20260506071422 | 59 | 95 | 3.0 | 3.0 | 0.00 | 0.00 | 0.00 | 96 | 1015.2 |
| 20260506070918 | 59 | 177 | 2.0 | 2.0 | 0.00 | 0.00 | 0.00 | 96 | 1015.2 |
| 20260506070415 | 60 | 166 | 2.0 | 2.0 | 0.00 | 0.00 | 0.00 | 96 | 1015.2 |
| 20260506062352 | 59 | 153 | 1.0 | 2.0 | 0.00 | 0.00 | 0.00 | 95 | 1015.7 |
| 20260506061848 | 59 | 134 | 1.0 | 2.0 | 0.00 | 0.00 | 0.00 | 95 | 1015.6 |
| 20260506061345 | 59 | 166 | 1.0 | 2.0 | 0.00 | 0.00 | 0.00 | 95 | 1015.9 |
| 20260506060843 | 59 | 129 | 2.0 | 2.0 | 0.00 | 0.00 | 0.00 | 95 | 1015.8 |
| 20260506060341 | 59 | 232 | 1.0 | 1.0 | 0.00 | 0.00 | 0.00 | 94 | 1015.9 |
| 20260506051313 | 61 | 279 | 0.0 | 1.0 | 0.00 | 0.00 | 0.00 | 90 | 1016.5 |
| 20260506050810 | 62 | 248 | 1.0 | 1.0 | 0.00 | 0.00 | 0.00 | 90 | 1016.6 |
| 20260506050308 | 62 | 220 | 1.0 | 1.0 | 0.00 | 0.00 | 0.00 | 90 | 1016.3 |
| 20260506044758 | 62 | 156 | 3.0 | 3.0 | 0.00 | 0.00 | 0.00 | 88 | 1016.7 |
| 20260506044256 | 62 | 143 | 3.0 | 5.0 | 0.00 | 0.00 | 0.00 | 88 | 1016.8 |
| 20260506043753 | 62 | 184 | 1.0 | 2.0 | 0.00 | 0.00 | 0.00 | 88 | 1016.8 |
| 20260506043250 | 62 | 167 | 2.0 | 2.0 | 0.00 | 0.00 | 0.00 | 88 | 1016.8 |
| 20260506042749 | 62 | 172 | 2.0 | 2.0 | 0.00 | 0.00 | 0.00 | 88 | 1016.9 |
| 20260506042247 | 62 | 170 | 2.0 | 2.0 | 0.00 | 0.00 | 0.00 | 87 | 1017.0 |
| 20260506041745 | 62 | 162 | 1.0 | 2.0 | 0.00 | 0.00 | 0.00 | 87 | 1017.0 |
| 20260506041242 | 63 | 178 | 2.0 | 2.0 | 0.00 | 0.00 | 0.00 | 86 | 1017.0 |
| 20260506040739 | 63 | 166 | 2.0 | 2.0 | 0.00 | 0.00 | 0.00 | 86 | 1016.9 |
| 20260506040236 | 63 | 173 | 3.0 | 3.0 | 0.00 | 0.00 | 0.00 | 86 | 1017.1 |
| 20260506035733 | 63 | 182 | 3.0 | 3.0 | 0.00 | 0.00 | 0.00 | 85 | 1017.1 |
| 20260506035230 | 63 | 186 | 3.0 | 3.0 | 0.00 | 0.00 | 0.00 | 85 | 1016.9 |
| 20260506034727 | 63 | 169 | 2.0 | 3.0 | 0.00 | 0.00 | 0.00 | 84 | 1017.1 |
| 20260506034224 | 63 | 195 | 3.0 | 3.0 | 0.00 | 0.00 | 0.00 | 84 | 1017.1 |
| 20260506033721 | 63 | 157 | 3.0 | 3.0 | 0.00 | 0.00 | 0.00 | 84 | 1017.3 |
| 20260506033218 | 64 | 194 | 1.0 | 1.0 | 0.00 | 0.00 | 0.00 | 83 | 1016.9 |
| 20260506032715 | 64 | 191 | 3.0 | 3.0 | 0.00 | 0.00 | 0.00 | 83 | 1017.0 |
| 20260506032212 | 64 | 166 | 2.0 | 2.0 | 0.00 | 0.00 | 0.00 | 83 | 1016.9 |
| 20260506031708 | 64 | 140 | 4.0 | 5.0 | 0.00 | 0.00 | 0.00 | 82 | 1016.9 |
| 20260506031206 | 64 | 177 | 5.0 | 5.0 | 0.00 | 0.00 | 0.00 | 82 | 1017.0 |
| 20260506030704 | 64 | 194 | 2.0 | 2.0 | 0.00 | 0.00 | 0.00 | 82 | 1017.2 |
| 20260506030201 | 64 | 194 | 2.0 | 2.0 | 0.00 | 0.00 | 0.00 | 82 | 1017.2 |
| 20260506025658 | 64 | 186 | 4.0 | 5.0 | 0.00 | 0.00 | 0.00 | 82 | 1017.0 |
| 20260506025154 | 64 | 191 | 3.0 | 3.0 | 0.00 | 0.00 | 0.00 | 82 | 1017.0 |
| 20260506024652 | 64 | 174 | 3.0 | 3.0 | 0.00 | 0.00 | 0.00 | 82 | 1017.0 |
| 20260506024148 | 64 | 195 | 3.0 | 3.0 | 0.00 | 0.00 | 0.00 | 81 | 1016.9 |
| 20260506023644 | 64 | 181 | 2.0 | 2.0 | 0.00 | 0.00 | 0.00 | 81 | 1017.1 |
| 20260506023141 | 64 | 176 | 3.0 | 5.0 | 0.00 | 0.00 | 0.00 | 82 | 1016.9 |
| 20260506022639 | 64 | 151 | 3.0 | 3.0 | 0.00 | 0.00 | 0.00 | 81 | 1016.9 |
| 20260506022136 | 64 | 168 | 3.0 | 5.0 | 0.00 | 0.00 | 0.00 | 81 | 1017.1 |
| 20260506021634 | 64 | 189 | 3.0 | 3.0 | 0.00 | 0.00 | 0.00 | 81 | 1016.9 |
| 20260506021131 | 64 | 172 | 3.0 | 3.0 | 0.00 | 0.00 | 0.00 | 80 | 1017.0 |
| 20260506020628 | 65 | 175 | 2.0 | 2.0 | 0.00 | 0.00 | 0.00 | 80 | 1017.0 |
| 20260506020125 | 65 | 228 | 3.0 | 3.0 | 0.00 | 0.00 | 0.00 | 80 | 1017.2 |
| 20260506015623 | 65 | 183 | 3.0 | 3.0 | 0.00 | 0.00 | 0.00 | 79 | 1016.9 |
| 20260506015119 | 65 | 220 | 2.0 | 2.0 | 0.00 | 0.00 | 0.00 | 78 | 1016.8 |
| 20260506014617 | 66 | 116 | 3.0 | 3.0 | 0.00 | 0.00 | 0.00 | 78 | 1016.8 |
| 20260506014112 | 66 | 157 | 5.0 | 7.0 | 0.00 | 0.00 | 0.00 | 77 | 1016.8 |
| 20260506013611 | 66 | 172 | 3.0 | 5.0 | 0.00 | 0.00 | 0.00 | 78 | 1016.5 |
| 20260506013107 | 66 | 128 | 4.0 | 7.0 | 0.00 | 0.00 | 0.00 | 77 | 1016.8 |
| 20260506012604 | 66 | 187 | 5.0 | 6.0 | 0.00 | 0.00 | 0.00 | 77 | 1016.8 |
| 20260506012100 | 66 | 187 | 4.0 | 7.0 | 0.00 | 0.00 | 0.00 | 77 | 1016.7 |
| 20260506011558 | 67 | 124 | 4.0 | 7.0 | 0.00 | 0.00 | 0.00 | 76 | 1016.7 |
| 20260506011048 | 67 | 255 | 4.0 | 5.0 | 0.00 | 0.00 | 0.00 | 76 | 1016.8 |
| 20260506010548 | 67 | 183 | 4.0 | 5.0 | 0.00 | 0.00 | 0.00 | 75 | 1016.4 |
| 20260506010044 | 67 | 183 | 4.0 | 5.0 | 0.00 | 0.00 | 0.00 | 75 | 1016.4 |
| 20260506005541 | 67 | 151 | 8.0 | 10.0 | 0.00 | 0.00 | 0.00 | 75 | 1016.4 |
| 20260506005037 | 67 | 159 | 4.0 | 5.0 | 0.00 | 0.00 | 0.00 | 75 | 1016.2 |
| 20260506004535 | 68 | 161 | 7.0 | 9.0 | 0.00 | 0.00 | 0.00 | 75 | 1016.3 |
| 20260506004031 | 68 | 199 | 7.0 | 9.0 | 0.00 | 0.00 | 0.00 | 74 | 1016.3 |
| 20260506003528 | 68 | 199 | 5.0 | 7.0 | 0.00 | 0.00 | 0.00 | 74 | 1016.2 |
| 20260506003024 | 68 | 150 | 4.0 | 5.0 | 0.00 | 0.00 | 0.00 | 74 | 1016.1 |
| 20260506002520 | 68 | 122 | 5.0 | 8.0 | 0.00 | 0.00 | 0.00 | 73 | 1016.3 |
| 20260506002016 | 68 | 212 | 4.0 | 5.0 | 0.00 | 0.00 | 0.00 | 74 | 1016.2 |
| 20260506001512 | 69 | 137 | 6.0 | 7.0 | 0.00 | 0.00 | 0.00 | 73 | 1016.1 |
| 20260506001010 | 69 | 181 | 6.0 | 6.0 | 0.00 | 0.00 | 0.00 | 73 | 1016.3 |
| 20260506000507 | 69 | 181 | 6.0 | 7.0 | 0.00 | 0.00 | 0.00 | 73 | 1016.3 |
| 20260506000004 | 69 | 174 | 4.0 | 5.0 | 0.00 | 0.00 | 0.00 | 73 | 1016.0 |
| 20260505235502 | 70 | 309 | 6.0 | 8.0 | 0.00 | 0.00 | 0.00 | 73 | 1016.0 |
| 20260505234958 | 70 | 109 | 4.0 | 5.0 | 0.00 | 0.00 | 0.00 | 73 | 1016.2 |
| 20260505234456 | 70 | 163 | 6.0 | 7.0 | 0.00 | 0.00 | 0.00 | 72 | 1016.0 |
| 20260505233952 | 70 | 103 | 6.0 | 7.0 | 0.00 | 0.00 | 0.00 | 72 | 1016.1 |
| 20260505233450 | 71 | 169 | 6.0 | 7.0 | 0.00 | 0.00 | 0.00 | 71 | 1015.8 |
| 20260505232947 | 71 | 134 | 5.0 | 7.0 | 0.00 | 0.00 | 0.00 | 71 | 1016.2 |
| 20260505232445 | 71 | 158 | 10.0 | 13.0 | 0.00 | 0.00 | 0.00 | 71 | 1016.0 |
| 20260505231942 | 71 | 177 | 5.0 | 7.0 | 0.00 | 0.00 | 0.00 | 71 | 1015.9 |
| 20260505231439 | 72 | 175 | 6.0 | 7.0 | 0.00 | 0.00 | 0.00 | 70 | 1015.8 |
| 20260505230938 | 72 | 152 | 7.0 | 8.0 | 0.00 | 0.00 | 0.00 | 70 | 1015.9 |
| 20260505230435 | 72 | 170 | 7.0 | 9.0 | 0.00 | 0.00 | 0.00 | 69 | 1016.0 |
| 20260505225931 | 72 | 171 | 7.0 | 11.0 | 0.00 | 0.00 | 0.00 | 69 | 1016.1 |
| 20260505225428 | 73 | 140 | 9.0 | 10.0 | 0.00 | 0.00 | 0.00 | 69 | 1016.0 |
| 20260505224924 | 73 | 177 | 5.0 | 7.0 | 0.00 | 0.00 | 0.00 | 69 | 1016.1 |
| 20260505224421 | 73 | 212 | 8.0 | 9.0 | 0.00 | 0.00 | 0.00 | 68 | 1015.9 |
| 20260505223918 | 73 | 179 | 6.0 | 9.0 | 0.00 | 0.00 | 0.00 | 68 | 1016.2 |
| 20260505223415 | 73 | 152 | 8.0 | 10.0 | 0.00 | 0.00 | 0.00 | 68 | 1015.8 |
| 20260505222911 | 73 | 191 | 9.0 | 11.0 | 0.00 | 0.00 | 0.00 | 67 | 1016.0 |
| 20260505222408 | 74 | 184 | 11.0 | 16.0 | 0.00 | 0.00 | 0.00 | 67 | 1016.1 |
| 20260505221904 | 75 | 170 | 7.0 | 9.0 | 0.00 | 0.00 | 0.00 | 66 | 1015.9 |
| 20260505221401 | 75 | 157 | 7.0 | 8.0 | 0.00 | 0.00 | 0.00 | 66 | 1015.9 |
| 20260505220858 | 75 | 118 | 8.0 | 11.0 | 0.00 | 0.00 | 0.00 | 66 | 1016.0 |
| 20260505220355 | 75 | 181 | 8.0 | 11.0 | 0.00 | 0.00 | 0.00 | 65 | 1016.1 |
| 20260505215853 | 75 | 134 | 4.0 | 6.0 | 0.00 | 0.00 | 0.00 | 65 | 1015.8 |
| 20260505215351 | 75 | 176 | 9.0 | 11.0 | 0.00 | 0.00 | 0.00 | 65 | 1015.7 |
| 20260505214849 | 76 | 184 | 6.0 | 7.0 | 0.00 | 0.00 | 0.00 | 64 | 1015.8 |
| 20260505214346 | 76 | 152 | 7.0 | 9.0 | 0.00 | 0.00 | 0.00 | 64 | 1015.8 |
| 20260505213843 | 77 | 196 | 6.0 | 7.0 | 0.00 | 0.00 | 0.00 | 64 | 1015.7 |
| 20260505213341 | 77 | 175 | 9.0 | 11.0 | 0.00 | 0.00 | 0.00 | 63 | 1015.7 |
| 20260505212837 | 76 | 221 | 5.0 | 8.0 | 0.00 | 0.00 | 0.00 | 64 | 1015.6 |
| 20260505212334 | 76 | 161 | 6.0 | 9.0 | 0.00 | 0.00 | 0.00 | 65 | 1015.5 |
| 20260505211830 | 77 | 177 | 8.0 | 9.0 | 0.00 | 0.00 | 0.00 | 63 | 1015.7 |
| 20260505211328 | 77 | 199 | 5.0 | 6.0 | 0.00 | 0.00 | 0.00 | 63 | 1015.6 |
| 20260505210824 | 77 | 190 | 10.0 | 13.0 | 0.00 | 0.00 | 0.00 | 62 | 1015.6 |
| 20260505210321 | 77 | 189 | 6.0 | 8.0 | 0.00 | 0.00 | 0.00 | 62 | 1015.6 |
| 20260505205818 | 78 | 182 | 5.0 | 7.0 | 0.00 | 0.00 | 0.00 | 61 | 1015.8 |
| 20260505205316 | 78 | 190 | 7.0 | 8.0 | 0.00 | 0.00 | 0.00 | 60 | 1015.5 |
| 20260505204812 | 76 | 145 | 9.0 | 10.0 | 0.00 | 0.00 | 0.00 | 61 | 1015.5 |
| 20260505204311 | 77 | 151 | 9.0 | 13.0 | 0.00 | 0.00 | 0.00 | 60 | 1015.6 |
| 20260505203808 | 77 | 150 | 12.0 | 14.0 | 0.00 | 0.00 | 0.00 | 59 | 1015.5 |
| 20260505203304 | 77 | 150 | 7.0 | 13.0 | 0.00 | 0.00 | 0.00 | 59 | 1015.6 |
| 20260505202800 | 77 | 163 | 10.0 | 13.0 | 0.00 | 0.00 | 0.00 | 58 | 1015.5 |
| 20260505202256 | 77 | 184 | 4.0 | 5.0 | 0.00 | 0.00 | 0.00 | 59 | 1015.7 |
| 20260505201753 | 77 | 166 | 5.0 | 7.0 | 0.00 | 0.00 | 0.00 | 58 | 1015.9 |
| 20260505201251 | 78 | 114 | 6.0 | 8.0 | 0.00 | 0.00 | 0.00 | 58 | 1015.6 |
| 20260505200749 | 79 | 155 | 6.0 | 8.0 | 0.00 | 0.00 | 0.00 | 56 | 1015.8 |
| 20260505200246 | 79 | 118 | 9.0 | 11.0 | 0.00 | 0.00 | 0.00 | 56 | 1015.8 |
| 20260505195741 | 78 | 154 | 6.0 | 7.0 | 0.00 | 0.00 | 0.00 | 58 | 1015.9 |
| 20260505195239 | 78 | 237 | 5.0 | 8.0 | 0.00 | 0.00 | 0.00 | 58 | 1016.1 |
| 20260505194736 | 78 | 115 | 7.0 | 8.0 | 0.00 | 0.00 | 0.00 | 58 | 1016.1 |
| 20260505194232 | 78 | 104 | 8.0 | 10.0 | 0.00 | 0.00 | 0.00 | 57 | 1016.2 |
| 20260505193728 | 78 | 259 | 5.0 | 8.0 | 0.00 | 0.00 | 0.00 | 58 | 1016.3 |
| 20260505193226 | 78 | 182 | 6.0 | 8.0 | 0.00 | 0.00 | 0.00 | 57 | 1016.5 |
| 20260505192724 | 80 | 178 | 12.0 | 15.0 | 0.00 | 0.00 | 0.00 | 56 | 1016.4 |
| 20260505192221 | 78 | 178 | 5.0 | 7.0 | 0.00 | 0.00 | 0.00 | 58 | 1016.4 |
| 20260505191720 | 79 | 182 | 8.0 | 9.0 | 0.00 | 0.00 | 0.00 | 55 | 1016.5 |
| 20260505191218 | 79 | 159 | 7.0 | 9.0 | 0.00 | 0.00 | 0.00 | 54 | 1016.7 |
| 20260505190714 | 78 | 131 | 8.0 | 10.0 | 0.00 | 0.00 | 0.00 | 56 | 1016.6 |
| 20260505190213 | 78 | 171 | 6.0 | 7.0 | 0.00 | 0.00 | 0.00 | 58 | 1016.9 |
| 20260505185710 | 80 | 178 | 5.0 | 9.0 | 0.00 | 0.00 | 0.00 | 56 | 1016.8 |
| 20260505185207 | 78 | 179 | 7.0 | 9.0 | 0.00 | 0.00 | 0.00 | 58 | 1016.9 |
| 20260505184703 | 78 | 179 | 7.0 | 8.0 | 0.00 | 0.00 | 0.00 | 59 | 1016.7 |
| 20260505184200 | 80 | 174 | 3.0 | 5.0 | 0.00 | 0.00 | 0.00 | 55 | 1016.8 |
| 20260505183657 | 78 | 171 | 4.0 | 5.0 | 0.00 | 0.00 | 0.00 | 55 | 1016.7 |
| 20260505183155 | 77 | 88 | 5.0 | 6.0 | 0.00 | 0.00 | 0.00 | 58 | 1017.1 |
| 20260505182650 | 77 | 195 | 8.0 | 9.0 | 0.00 | 0.00 | 0.00 | 58 | 1017.0 |
| 20260505182148 | 78 | 190 | 6.0 | 7.0 | 0.00 | 0.00 | 0.00 | 56 | 1016.9 |
| 20260505181644 | 79 | 241 | 5.0 | 8.0 | 0.00 | 0.00 | 0.00 | 56 | 1017.0 |
| 20260505181142 | 78 | 165 | 3.0 | 5.0 | 0.00 | 0.00 | 0.00 | 56 | 1017.0 |
| 20260505180638 | 78 | 169 | 7.0 | 9.0 | 0.00 | 0.00 | 0.00 | 56 | 1017.1 |
| 20260505180135 | 79 | 198 | 6.0 | 8.0 | 0.00 | 0.00 | 0.00 | 55 | 1017.0 |
| 20260505175631 | 79 | 162 | 5.0 | 6.0 | 0.00 | 0.00 | 0.00 | 55 | 1017.1 |
| 20260505175128 | 79 | 159 | 6.0 | 7.0 | 0.00 | 0.00 | 0.00 | 54 | 1017.2 |
| 20260505174624 | 80 | 183 | 6.0 | 8.0 | 0.00 | 0.00 | 0.00 | 51 | 1017.1 |
| 20260505174120 | 78 | 175 | 7.0 | 8.0 | 0.00 | 0.00 | 0.00 | 54 | 1017.3 |
| 20260505173617 | 78 | 169 | 8.0 | 10.0 | 0.00 | 0.00 | 0.00 | 56 | 1017.5 |
| 20260505173114 | 77 | 157 | 6.0 | 7.0 | 0.00 | 0.00 | 0.00 | 58 | 1017.2 |
| 20260505172612 | 77 | 123 | 5.0 | 6.0 | 0.00 | 0.00 | 0.00 | 58 | 1017.5 |
| 20260505172108 | 78 | 185 | 2.0 | 5.0 | 0.00 | 0.00 | 0.00 | 55 | 1017.4 |
| 20260505171603 | 78 | 181 | 6.0 | 8.0 | 0.00 | 0.00 | 0.00 | 58 | 1017.2 |
| 20260505171100 | 76 | 159 | 6.0 | 10.0 | 0.00 | 0.00 | 0.00 | 59 | 1017.3 |
| 20260505170557 | 77 | 194 | 5.0 | 8.0 | 0.00 | 0.00 | 0.00 | 58 | 1017.3 |
| 20260505170053 | 77 | 181 | 7.0 | 9.0 | 0.00 | 0.00 | 0.00 | 58 | 1017.4 |
| 20260505165548 | 79 | 188 | 6.0 | 9.0 | 0.00 | 0.00 | 0.00 | 57 | 1017.3 |
| 20260505165045 | 77 | 173 | 6.0 | 7.0 | 0.00 | 0.00 | 0.00 | 58 | 1017.5 |
| 20260505164540 | 77 | 161 | 7.0 | 8.0 | 0.00 | 0.00 | 0.00 | 59 | 1017.6 |
| 20260505164038 | 77 | 116 | 5.0 | 7.0 | 0.00 | 0.00 | 0.00 | 60 | 1017.5 |
| 20260505163537 | 78 | 151 | 10.0 | 11.0 | 0.00 | 0.00 | 0.00 | 58 | 1017.8 |
| 20260505163033 | 80 | 162 | 6.0 | 10.0 | 0.00 | 0.00 | 0.00 | 57 | 1017.7 |
| 20260505162521 | 77 | 201 | 3.0 | 3.0 | 0.00 | 0.00 | 0.00 | 60 | 1017.6 |
| 20260505162018 | 76 | 182 | 5.0 | 7.0 | 0.00 | 0.00 | 0.00 | 63 | 1017.8 |
| 20260505161514 | 77 | 165 | 7.0 | 8.0 | 0.00 | 0.00 | 0.00 | 59 | 1017.9 |
| 20260505161012 | 77 | 227 | 4.0 | 5.0 | 0.00 | 0.00 | 0.00 | 61 | 1017.9 |
| 20260505160510 | 77 | 97 | 4.0 | 5.0 | 0.00 | 0.00 | 0.00 | 61 | 1018.0 |
| 20260505152946 | 76 | 181 | 6.0 | 7.0 | 0.00 | 0.00 | 0.00 | 58 | 1018.4 |
| 20260505152443 | 75 | 16 | 2.0 | 3.0 | 0.00 | 0.00 | 0.00 | 60 | 1018.3 |
| 20260505151938 | 75 | 169 | 7.0 | 7.0 | 0.00 | 0.00 | 0.00 | 60 | 1018.3 |
| 20260505151433 | 77 | 172 | 6.0 | 9.0 | 0.00 | 0.00 | 0.00 | 60 | 1018.2 |
| 20260505150931 | 75 | 273 | 2.0 | 3.0 | 0.00 | 0.00 | 0.00 | 64 | 1018.3 |
| 20260505150428 | 77 | 253 | 4.0 | 6.0 | 0.00 | 0.00 | 0.00 | 59 | 1018.4 |
| 20260505140358 | 73 | 221 | 4.0 | 5.0 | 0.00 | 0.00 | 0.00 | 70 | 1018.6 |
| 20260505124811 | 67 | 190 | 4.0 | 6.0 | 0.00 | 0.00 | 0.00 | 80 | 1018.5 |
| 20260505124308 | 67 | 190 | 4.0 | 6.0 | 0.00 | 0.00 | 0.00 | 80 | 1018.5 |
| 20260505123804 | 66 | 159 | 3.0 | 3.0 | 0.00 | 0.00 | 0.00 | 81 | 1018.6 |
| 20260505123301 | 66 | 190 | 3.0 | 5.0 | 0.00 | 0.00 | 0.00 | 82 | 1018.4 |
| 20260505122757 | 65 | 197 | 3.0 | 3.0 | 0.00 | 0.00 | 0.00 | 84 | 1018.4 |
| 20260505122255 | 64 | 153 | 2.0 | 2.0 | 0.00 | 0.00 | 0.00 | 85 | 1018.2 |
| 20260505121751 | 64 | 186 | 2.0 | 2.0 | 0.00 | 0.00 | 0.00 | 85 | 1018.4 |
| 20260505121248 | 62 | 158 | 3.0 | 3.0 | 0.00 | 0.00 | 0.00 | 87 | 1018.3 |
| 20260505120744 | 61 | 176 | 2.0 | 3.0 | 0.00 | 0.00 | 0.00 | 88 | 1018.3 |
| 20260505120240 | 60 | 209 | 5.0 | 6.0 | 0.00 | 0.00 | 0.00 | 89 | 1018.4 |
| 20260505115739 | 59 | 171 | 3.0 | 3.0 | 0.00 | 0.00 | 0.00 | 91 | 1018.0 |
| 20260505115237 | 58 | 150 | 3.0 | 3.0 | 0.00 | 0.00 | 0.00 | 92 | 1018.1 |
| 20260505114734 | 57 | 187 | 3.0 | 3.0 | 0.00 | 0.00 | 0.00 | 94 | 1018.3 |
| 20260505114230 | 56 | 176 | 3.0 | 3.0 | 0.00 | 0.00 | 0.00 | 94 | 1017.9 |
| 20260505113727 | 56 | 184 | 2.0 | 2.0 | 0.00 | 0.00 | 0.00 | 95 | 1018.3 |
| 20260505113223 | 55 | 228 | 1.0 | 2.0 | 0.00 | 0.00 | 0.00 | 97 | 1017.8 |
| 20260505112720 | 54 | 176 | 2.0 | 2.0 | 0.00 | 0.00 | 0.00 | 97 | 1018.0 |
| 20260505112218 | 53 | 239 | 1.0 | 1.0 | 0.00 | 0.00 | 0.00 | 98 | 1018.0 |
| 20260505111717 | 53 | 251 | 0.0 | 0.0 | 0.00 | 0.00 | 0.00 | 98 | 1018.0 |
| 20260505111214 | 52 | 233 | 0.0 | 0.0 | 0.00 | 0.00 | 0.00 | 98 | 1017.9 |
| 20260505110709 | 52 | 273 | 0.0 | 0.0 | 0.00 | 0.00 | 0.00 | 98 | 1017.8 |
| 20260505110207 | 51 | 268 | 0.0 | 0.0 | 0.00 | 0.00 | 0.00 | 98 | 1017.7 |
| 20260505102142 | 51 | 274 | 0.0 | 0.0 | 0.00 | 0.00 | 0.00 | 98 | 1017.2 |
| 20260505101641 | 51 | 286 | 0.0 | 0.0 | 0.00 | 0.00 | 0.00 | 98 | 1016.9 |
| 20260505101137 | 51 | 284 | 0.0 | 0.0 | 0.00 | 0.00 | 0.00 | 98 | 1017.1 |
| 20260505100633 | 51 | 228 | 0.0 | 0.0 | 0.00 | 0.00 | 0.00 | 97 | 1017.1 |
| 20260505100130 | 51 | 275 | 0.0 | 0.0 | 0.00 | 0.00 | 0.00 | 97 | 1017.1 |
| 20260505095626 | 51 | 286 | 0.0 | 0.0 | 0.00 | 0.00 | 0.00 | 97 | 1017.0 |
| 20260505095124 | 52 | 286 | 0.0 | 0.0 | 0.00 | 0.00 | 0.00 | 97 | 1016.9 |
| 20260505094620 | 52 | 283 | 0.0 | 0.0 | 0.00 | 0.00 | 0.00 | 97 | 1016.8 |
| 20260505094116 | 52 | 281 | 0.0 | 0.0 | 0.00 | 0.00 | 0.00 | 97 | 1016.9 |
| 20260505093613 | 52 | 271 | 0.0 | 0.0 | 0.00 | 0.00 | 0.00 | 97 | 1016.9 |
| 20260505093110 | 52 | 280 | 0.0 | 0.0 | 0.00 | 0.00 | 0.00 | 97 | 1016.6 |
| 20260505092607 | 52 | 276 | 0.0 | 0.0 | 0.00 | 0.00 | 0.00 | 97 | 1016.7 |
| 20260505092106 | 52 | 277 | 0.0 | 0.0 | 0.00 | 0.00 | 0.00 | 96 | 1016.7 |
| 20260505091602 | 53 | 283 | 0.0 | 0.0 | 0.00 | 0.00 | 0.00 | 96 | 1016.6 |
| 20260505091100 | 53 | 281 | 0.0 | 0.0 | 0.00 | 0.00 | 0.00 | 96 | 1016.6 |
| 20260505090558 | 53 | 281 | 0.0 | 0.0 | 0.00 | 0.00 | 0.00 | 96 | 1016.7 |
| 20260505090056 | 53 | 286 | 0.0 | 0.0 | 0.00 | 0.00 | 0.00 | 96 | 1016.5 |
| 20260505085553 | 53 | 286 | 0.0 | 0.0 | 0.00 | 0.00 | 0.00 | 96 | 1016.6 |
| 20260505085051 | 53 | 287 | 0.0 | 0.0 | 0.00 | 0.00 | 0.00 | 95 | 1016.7 |
| 20260505084549 | 53 | 280 | 0.0 | 0.0 | 0.00 | 0.00 | 0.00 | 95 | 1016.6 |
| 20260505084047 | 53 | 281 | 0.0 | 0.0 | 0.00 | 0.00 | 0.00 | 95 | 1016.3 |
| 20260505083544 | 53 | 283 | 0.0 | 0.0 | 0.00 | 0.00 | 0.00 | 95 | 1016.5 |
| 20260505083040 | 53 | 281 | 0.0 | 0.0 | 0.00 | 0.00 | 0.00 | 95 | 1016.3 |
| 20260505082536 | 53 | 269 | 0.0 | 1.0 | 0.00 | 0.00 | 0.00 | 94 | 1016.3 |
| 20260505082033 | 54 | 284 | 0.0 | 0.0 | 0.00 | 0.00 | 0.00 | 94 | 1016.5 |
| 20260505081529 | 54 | 286 | 0.0 | 0.0 | 0.00 | 0.00 | 0.00 | 94 | 1016.3 |
| 20260505081027 | 54 | 283 | 0.0 | 0.0 | 0.00 | 0.00 | 0.00 | 93 | 1016.3 |
| 20260505080523 | 54 | 238 | 1.0 | 1.0 | 0.00 | 0.00 | 0.00 | 93 | 1016.4 |
| 20260505080020 | 55 | 265 | 1.0 | 1.0 | 0.00 | 0.00 | 0.00 | 92 | 1016.4 |